Flag for Canada Weather past 2 weeks in Markham, Ontario, Canada

Now
70 °F

Mostly cloudy.


Feels Like: 70 °F
Forecast: 57 / 75 °F
Wind: 8 mph from Southwest

Location: Toronto Buttonville

Current Time: Aug 29, 2015 at 12:58:26 PM

Latest Report: Aug 29, 2015 at 12:00 PM


Visibility: 15 mi

Pressure: 30.15 "Hg

Humidity: 69%

Dew point: 59 °F

Location of MarkhamLocation

Historic Weather in Markham — Graph

°F

Markham temperature yesterday

Maximum temperature yesterday: 73 °F (at 4:00 PM)
Minimum temperature yesterday: 50 °F (at 5:00 AM)
Average temperature yesterday: 63 °F

Past Weeks' High & Low Weather Summary

 TemperatureHumidityPressure
High90 °F (Aug 17, 2:00 PM)100% (Aug 29, 6:00 AM)30.23 "Hg (Aug 29, 6:00 AM)
Low50 °F (Aug 28, 5:00 AM)36% (Aug 22, 3:00 PM)29.71 "Hg (Aug 20, 7:00 AM)
Average69 °F74%30.00 "Hg
* Reported Aug 14 11:00 AM — Aug 29 11:00 AM, Markham, Weather by CustomWeather, © 2015

Note: Actual official high and low records may vary slightly from our data, if they occured in-between our weather recording intervals... More about our weather records

Advertising

Markham weather history for previous 24 hours

 ConditionsComfort  
Time TempWeatherWind HumidityBarometerVisibility
11:00 AM
Sat, Aug 29
68 °FMostly cloudy.3 mph73%30.14 "Hg15 mi
10:00 AM68 °FPartly sunny.3 mph69%30.15 "Hg15 mi
9:00 AM63 °FPartly sunny.2 mph83%30.16 "Hg12 mi
8:00 AM59 °FPartly sunny.No wind88%30.16 "Hg12 mi
7:00 AM55 °FPartly cloudy.No wind94%30.15 "Hg8 mi
6:00 AM55 °FFog.2 mph100%30.13 "Hg6 mi
5:00 AM57 °FFog.No wind94%30.14 "Hg5 mi
4:00 AM57 °FPartly cloudy.No wind94%30.14 "Hg7 mi
3:00 AM57 °FPassing clouds.2 mph94%30.14 "Hg8 mi
2:00 AM57 °FPartly cloudy.2 mph94%30.16 "Hg15 mi
1:00 AM59 °FPartly cloudy.3 mph88%30.16 "Hg15 mi
12:00 AM61 °FPassing clouds.No wind88%30.15 "Hg15 mi
11:00 PM
Fri, Aug 28
64 °FHigh level clouds.3 mph83%30.16 "Hg15 mi
10:00 PM66 °FPassing clouds.6 mph73%30.16 "Hg15 mi
9:00 PM66 °FPassing clouds.6 mph73%30.16 "Hg15 mi
8:00 PM68 °FBroken clouds.6 mph64%30.15 "Hg15 mi
7:00 PM72 °FPartly sunny.6 mph57%30.15 "Hg15 mi
6:00 PM73 °FPartly sunny.8 mph53%30.15 "Hg15 mi
5:00 PM72 °FPartly sunny.10 mph57%30.14 "Hg15 mi
4:00 PM73 °FScattered clouds.5 mph50%30.16 "Hg15 mi
3:00 PM72 °FScattered clouds.7 mph53%30.18 "Hg15 mi
2:00 PM72 °FScattered clouds.2 mph53%30.19 "Hg15 mi
1:00 PM70 °FScattered clouds.6 mph57%30.20 "Hg15 mi
12:00 PM70 °FPartly sunny.7 mph57%30.22 "Hg15 mi
Weather by CustomWeather, © 2015

See weather overviewHow to use our weather pages